This is the latest recevied weather packets stored in our database for station/object PY2UTU-WX. If no packets are shown the sender has not sent any weather packets the latest 1 day(s).
| Time | Temp. | Humidity | Pressure | Rain* | Wind** | Luminosity | Snow |
|---|---|---|---|---|---|---|---|
| 1778059646 | 21.67° C | 98% | 927.2 hPa | - | - | - | - |
| 1778058746 | 22.78° C | 98% | 927 hPa | - | - | - | - |
| 1778057846 | 22.78° C | 98% | 927 hPa | - | - | - | - |
| 1778056946 | 22.78° C | 98% | 926.8 hPa | - | - | - | - |
| 1778056046 | 22.78° C | 98% | 926.7 hPa | - | - | - | - |
| 1778055146 | 22.78° C | 98% | 926.6 hPa | - | - | - | - |
| 1778054246 | 22.78° C | 98% | 926.4 hPa | - | - | - | - |
| 1778053346 | 22.22° C | 98% | 926.4 hPa | - | - | - | - |
| 1778051546 | 22.78° C | 98% | 926.6 hPa | - | - | - | - |
| 1778050646 | 22.78° C | 98% | 926.7 hPa | - | - | - | - |
| 1778048846 | 22.78° C | 98% | 926.8 hPa | - | - | - | - |
| 1778047046 | 22.78° C | 98% | 926.6 hPa | - | - | - | - |
| 1778042546 | 22.78° C | 98% | 927.3 hPa | - | - | - | - |
| 1778041646 | 22.78° C | 98% | 927.3 hPa | - | - | - | - |
| 1778040746 | 23.33° C | 98% | 927.4 hPa | - | - | - | - |
| 1778039846 | 22.78° C | 98% | 927.4 hPa | - | - | - | - |
| 1778038046 | 22.78° C | 98% | 927.7 hPa | - | - | - | - |
| 1778036245 | 22.78° C | 98% | 927.8 hPa | - | - | - | - |
| 1778034445 | 22.78° C | 98% | 928 hPa | - | - | - | - |
| 1778033546 | 22.78° C | 98% | 928 hPa | - | - | - | - |
| 1778032645 | 22.78° C | 98% | 928 hPa | - | - | - | - |
| 1778031745 | 23.89° C | 98% | 928 hPa | - | - | - | - |
| 1778029045 | 22.78° C | 98% | 928 hPa | - | - | - | - |
* Rain since midnight (hover to see other rain measurements)
** Current wind speed in m/s (hover to see current wind gust speed)